Weather History for Wrangell, AK

Change the Weather History Date:

Sunday, December 8, 2013

  Actual Average Record
Temperature  
Mean Temperature 26 °F -  
Max Temperature 30 °F 37 °F 51 °F (1960)
Min Temperature 21 °F 28 °F -1 °F (1977)
Degree Days  
Heating Degree Days 40    
Moisture  
Dew Point 20 °F    
Average Humidity 76    
Maximum Humidity 86    
Minimum Humidity 68    
Precipitation  
Precipitation 0.00 in - - ()
Sea Level Pressure  
Sea Level Pressure 30.49 in    
Wind  
Wind Speed 4 mph (ESE)    
Max Wind Speed 9 mph    
Max Gust Speed -    
Visibility 9 miles    
Events      
Averages and records for this station are not official NWS values.
T = Trace of Precipitation, MM = Missing Value Source: NWS Daily Summary

Daily Weather History Graph

Daily Weather History Graph

Search for Another Location

Airport:

Trip Planner

Search our weather history database for the weather conditions in past years. The results will help you decide how hot, cold, wet, or windy it might be!

Date:

Astronomy

Dec. 08, 2013 Rise Set
Actual Time 8:10 AM AKST 3:12 PM AKST
Civil Twilight 7:23 AM AKST 3:59 PM AKST
Nautical Twilight 6:33 AM AKST 4:49 PM AKST
Astronomical Twilight 5:47 AM AKST 5:35 PM AKST
Moon 11:37 AM AKST (12/8) 11:13 PM AKST (12/8)
Length of Visible Light 8h 36m
Length of Day
7h 01m
Waxing Crescent, 41% of the Moon is Illuminated
Dec 8
Waxing Crescent
Dec 9
First Quarter
Dec 17
Full
Dec 25
Last Quarter
Jan 1
New

Hourly Weather History & Observations

Time (AKST) Temp. Windchill Dew Point Humidity Pressure Visibility Wind Dir Wind Speed Gust Speed Precip Events Conditions
12:16 AM 21.2 °F - 12.2 °F 68% 30.45 in 10.0 mi Calm Calm - N/A   Clear
12:36 AM 21.2 °F 14.9 °F 12.2 °F 68% 30.46 in 10.0 mi West 4.6 mph - N/A   Clear
12:56 AM 21.2 °F 14.9 °F 14.0 °F 74% 30.46 in 10.0 mi NNW 4.6 mph - N/A   Clear
1:16 AM 23.0 °F - 14.0 °F 68% 30.46 in 10.0 mi Calm Calm - N/A   Clear
1:36 AM 21.2 °F - 12.2 °F 68% 30.47 in 10.0 mi Calm Calm - N/A   Clear
1:56 AM 21.2 °F 16.4 °F 14.0 °F 74% 30.46 in 10.0 mi West 3.5 mph - N/A   Clear
2:16 AM 21.2 °F 14.9 °F 14.0 °F 74% 30.47 in 10.0 mi West 4.6 mph - N/A   Clear
2:36 AM 21.2 °F - 12.2 °F 68% 30.47 in 10.0 mi Calm Calm - N/A   Clear
2:56 AM 21.2 °F - 12.2 °F 68% 30.47 in 10.0 mi Calm Calm - N/A   Clear
3:16 AM 23.0 °F - 15.8 °F 74% 30.47 in 10.0 mi Calm Calm - N/A   Clear
3:36 AM 23.0 °F - 15.8 °F 74% 30.47 in 10.0 mi Calm Calm - N/A   Clear
3:56 AM 23.0 °F - 15.8 °F 74% 30.47 in 10.0 mi Calm Calm - N/A   Clear
4:16 AM 23.0 °F - 15.8 °F 74% 30.47 in 10.0 mi Calm Calm - N/A   Partly Cloudy
4:36 AM 21.2 °F 16.4 °F 15.8 °F 80% 30.47 in 10.0 mi SE 3.5 mph - N/A   Mostly Cloudy
4:56 AM 21.2 °F 16.4 °F 15.8 °F 80% 30.47 in 10.0 mi South 3.5 mph - N/A   Mostly Cloudy
5:16 AM 21.2 °F 16.4 °F 15.8 °F 80% 30.47 in 10.0 mi SSE 3.5 mph - N/A   Partly Cloudy
5:36 AM 21.2 °F - 15.8 °F 80% 30.47 in 10.0 mi Calm Calm - N/A   Mostly Cloudy
5:56 AM 23.0 °F 18.4 °F 15.8 °F 74% 30.48 in 10.0 mi SSE 3.5 mph - N/A   Overcast
6:16 AM 23.0 °F 17.0 °F 15.8 °F 74% 30.47 in 10.0 mi SSE 4.6 mph - N/A   Mostly Cloudy
6:36 AM 23.0 °F 15.8 °F 15.8 °F 74% 30.48 in 10.0 mi SSE 5.8 mph - N/A   Mostly Cloudy
6:56 AM 23.0 °F 17.0 °F 15.8 °F 74% 30.47 in 10.0 mi SSE 4.6 mph - N/A   Scattered Clouds
7:16 AM 23.0 °F 17.0 °F 15.8 °F 74% 30.48 in 10.0 mi SSE 4.6 mph - N/A   Scattered Clouds
7:36 AM 23.0 °F 18.4 °F 15.8 °F 74% 30.49 in 10.0 mi SE 3.5 mph - N/A   Scattered Clouds
7:56 AM 23.0 °F 17.0 °F 15.8 °F 74% 30.49 in 10.0 mi SSE 4.6 mph - N/A   Scattered Clouds
8:16 AM 24.8 °F 19.1 °F 17.6 °F 74% 30.50 in 10.0 mi SSE 4.6 mph - N/A   Scattered Clouds
8:36 AM 24.8 °F 17.9 °F 17.6 °F 74% 30.50 in 10.0 mi SE 5.8 mph - N/A   Scattered Clouds
8:56 AM 24.8 °F 19.1 °F 17.6 °F 74% 30.50 in 10.0 mi SSE 4.6 mph - N/A   Scattered Clouds
9:16 AM 24.8 °F - 17.6 °F 74% 30.51 in 10.0 mi Calm Calm - N/A   Scattered Clouds
9:36 AM 24.8 °F 17.9 °F 17.6 °F 74% 30.50 in 10.0 mi SE 5.8 mph - N/A   Scattered Clouds
9:56 AM 24.8 °F 15.3 °F 19.4 °F 80% 30.50 in 10.0 mi ESE 9.2 mph - N/A   Mostly Cloudy
10:16 AM 24.8 °F 17.9 °F 17.6 °F 74% 30.51 in 10.0 mi SSE 5.8 mph - N/A   Mostly Cloudy
10:36 AM 24.8 °F 20.5 °F 17.6 °F 74% 30.52 in 10.0 mi East 3.5 mph - N/A   Mostly Cloudy
10:56 AM 26.6 °F 18.2 °F 19.4 °F 74% 30.51 in 10.0 mi East 8.1 mph - N/A   Partly Cloudy
11:16 AM 26.6 °F 19.1 °F 19.4 °F 74% 30.50 in 10.0 mi SE 6.9 mph - N/A   Partly Cloudy
11:36 AM 26.6 °F 18.2 °F 19.4 °F 74% 30.50 in 10.0 mi SE 8.1 mph - N/A   Partly Cloudy
11:56 AM 28.4 °F 21.2 °F 19.4 °F 69% 30.50 in 10.0 mi SE 6.9 mph - N/A   Mostly Cloudy
12:16 PM 28.4 °F 21.2 °F 19.4 °F 69% 30.51 in 10.0 mi SE 6.9 mph - N/A   Mostly Cloudy
12:36 PM 28.4 °F 22.2 °F 19.4 °F 69% 30.52 in 10.0 mi ESE 5.8 mph - N/A   Mostly Cloudy
12:56 PM 28.4 °F 21.2 °F 21.2 °F 74% 30.52 in 10.0 mi ESE 6.9 mph - N/A   Overcast
1:16 PM 28.4 °F 21.2 °F 21.2 °F 74% 30.51 in 10.0 mi East 6.9 mph - N/A   Overcast
1:36 PM 28.4 °F 23.3 °F 21.2 °F 74% 30.51 in 10.0 mi NW 4.6 mph - N/A   Overcast
1:56 PM 28.4 °F 24.6 °F 21.2 °F 74% 30.51 in 10.0 mi ENE 3.5 mph - N/A   Overcast
2:16 PM 30.2 °F 22.6 °F 21.2 °F 69% 30.50 in 10.0 mi ESE 8.1 mph - N/A   Overcast
2:36 PM 30.2 °F 25.4 °F 21.2 °F 69% 30.50 in 10.0 mi SE 4.6 mph - N/A   Overcast
2:56 PM 30.2 °F 23.4 °F 21.2 °F 69% 30.50 in 10.0 mi East 6.9 mph - N/A   Overcast
3:16 PM 30.2 °F 23.4 °F 21.2 °F 69% 30.50 in 10.0 mi ESE 6.9 mph - N/A   Overcast
3:36 PM 30.2 °F 24.3 °F 21.2 °F 69% 30.50 in 10.0 mi ESE 5.8 mph - N/A   Overcast
3:56 PM 30.2 °F 24.3 °F 21.2 °F 69% 30.50 in 10.0 mi ESE 5.8 mph - N/A   Overcast
4:16 PM 30.2 °F 25.4 °F 24.8 °F 80% 30.50 in 10.0 mi East 4.6 mph - N/A   Overcast
4:36 PM 30.2 °F 25.4 °F 24.8 °F 80% 30.49 in 10.0 mi East 4.6 mph - N/A   Overcast
4:56 PM 30.2 °F 24.3 °F 23.0 °F 75% 30.49 in 10.0 mi East 5.8 mph - N/A   Overcast
5:16 PM 30.2 °F 24.3 °F 24.8 °F 80% 30.49 in 10.0 mi East 5.8 mph - N/A   Overcast
5:36 PM 30.2 °F 22.6 °F 24.8 °F 80% 30.49 in 10.0 mi ESE 8.1 mph - N/A   Overcast
5:56 PM 30.2 °F 23.4 °F 24.8 °F 80% 30.49 in 10.0 mi East 6.9 mph - N/A   Overcast
6:16 PM 30.2 °F 21.9 °F 24.8 °F 80% 30.50 in 10.0 mi East 9.2 mph - N/A   Overcast
6:36 PM 30.2 °F 21.9 °F 24.8 °F 80% 30.50 in 10.0 mi East 9.2 mph - N/A   Overcast
6:56 PM 30.2 °F 23.4 °F 24.8 °F 80% 30.50 in 10.0 mi East 6.9 mph - N/A   Overcast
7:16 PM 30.2 °F 23.4 °F 24.8 °F 80% 30.50 in 10.0 mi East 6.9 mph - N/A   Overcast
7:36 PM 30.2 °F 21.9 °F 24.8 °F 80% 30.49 in 10.0 mi East 9.2 mph - N/A   Overcast
7:56 PM 30.2 °F 21.9 °F 26.6 °F 86% 30.49 in 8.0 mi ESE 9.2 mph - N/A   Overcast
8:16 PM 30.2 °F 24.3 °F 26.6 °F 86% 30.49 in 8.0 mi East 5.8 mph - N/A   Overcast
8:36 PM 30.2 °F 22.6 °F 24.8 °F 80% 30.50 in 8.0 mi East 8.1 mph - N/A   Overcast
8:56 PM 30.2 °F 21.9 °F 26.6 °F 86% 30.49 in 8.0 mi East 9.2 mph - N/A   Overcast
9:16 PM 30.2 °F 24.3 °F 26.6 °F 86% 30.49 in 8.0 mi East 5.8 mph - N/A   Overcast
9:36 PM 30.2 °F 23.4 °F 26.6 °F 86% 30.50 in 8.0 mi ENE 6.9 mph - N/A   Overcast
9:56 PM 28.4 °F 22.2 °F 24.8 °F 86% 30.50 in 7.0 mi NNW 5.8 mph - N/A   Overcast
10:16 PM 28.4 °F 24.6 °F 24.8 °F 86% 30.50 in 7.0 mi NNW 3.5 mph - N/A   Overcast
10:36 PM 28.4 °F 22.2 °F 23.0 °F 80% 30.50 in 7.0 mi NNW 5.8 mph - N/A   Overcast
10:56 PM 28.4 °F 22.2 °F 23.0 °F 80% 30.50 in 7.0 mi NNW 5.8 mph - N/A   Overcast
11:16 PM 28.4 °F 24.6 °F 23.0 °F 80% 30.49 in 2.0 mi WNW 3.5 mph - N/A   Overcast
11:36 PM 28.4 °F - 24.8 °F 86% 30.49 in 3.0 mi Calm Calm - N/A   Overcast
11:56 PM 30.2 °F 24.3 °F 26.6 °F 86% 30.49 in 6.0 mi East 5.8 mph - N/A   Overcast